This is the latest recevied weather packets stored in our database for station/object OZ1IEP-5. If no packets are shown the sender has not sent any weather packets the latest 1 day(s).
| Time | Temp. | Humidity | Pressure | Rain* | Wind** | Luminosity | Snow |
|---|---|---|---|---|---|---|---|
| 1778059206 | 12.22° C | 50% | 1008.8 hPa | 0 mm | - | 564 W/m² | - |
| 1778058007 | 12.22° C | 49% | 1008.8 hPa | 0 mm | - | 367 W/m² | - |
| 1778057406 | 12.22° C | 50% | 1008.8 hPa | 0 mm | - | 487 W/m² | - |
| 1778056806 | 11.67° C | 53% | 1008.9 hPa | 0 mm | - | 512 W/m² | - |
| 1778056208 | 11.67° C | 53% | 1008.8 hPa | 0 mm | - | 483 W/m² | - |
| 1778055006 | 11.11° C | 54% | 1008.8 hPa | 0 mm | - | 250 W/m² | - |
| 1778053805 | 10.56° C | 59% | 1008.8 hPa | 0 mm | - | 125 W/m² | - |
| 1778052006 | 9.44° C | 56% | 1008.8 hPa | 0 mm | - | 144 W/m² | - |
| 1778051406 | 9.44° C | 57% | 1008.8 hPa | 0 mm | - | 102 W/m² | - |
| 1778050206 | 8.89° C | 56% | 1008.9 hPa | 0 mm | - | 69 W/m² | - |
| 1778047208 | 8.33° C | 56% | 1009 hPa | 0 mm | - | 42 W/m² | - |
| 1778046606 | 8.33° C | 56% | 1009.2 hPa | 0 mm | - | 39 W/m² | - |
| 1778044205 | 7.78° C | 58% | 1009.3 hPa | 0 mm | - | 40 W/m² | - |
| 1778042405 | 7.22° C | 62% | 1009.3 hPa | 0 mm | - | 47 W/m² | - |
| 1778041807 | 7.22° C | 62% | 1009.3 hPa | 0 mm | - | 70 W/m² | - |
| 1778041206 | 7.22° C | 62% | 1009.3 hPa | 0 mm | - | 81 W/m² | - |
| 1778040010 | 7.22° C | 60% | 1009.3 hPa | 0 mm | - | 30 W/m² | - |
| 1778039408 | 6.67° C | 61% | 1009.3 hPa | 0 mm | - | 19 W/m² | - |
| 1778038806 | 6.67° C | 63% | 1009.3 hPa | 0 mm | - | 16 W/m² | - |
| 1778038209 | 6.67° C | 62% | 1009.3 hPa | 0 mm | - | 9 W/m² | - |
| 1778037606 | 6.67° C | 62% | 1009.3 hPa | 0 mm | - | 0 W/m² | - |
| 1778037006 | 6.67° C | 62% | 1009.3 hPa | 0 mm | - | 0 W/m² | - |
| 1778036408 | 6.67° C | 62% | 1009.3 hPa | 0 mm | - | 0 W/m² | - |
| 1778035206 | 6.67° C | 61% | 1009.5 hPa | 0 mm | - | 0 W/m² | - |
| 1778034006 | 7.22° C | 62% | 1009.6 hPa | 0 mm | - | 0 W/m² | - |
* Rain latest hour (hover to see other rain measurements)
** Current wind speed in m/s (hover to see current wind gust speed)